Location: ????? ???????
(25.7275°N, 32.5929°E)
Time: 11:50:51
(UTC+00:00)

CSL-04 Rocket - Pass Details

Date: 02 March 2021
Orbit: 805 x 861 km, 98.9° (Epoch: 15 April)

Event Time Altitude Azimuth Distance (km) Brightness Sun altitude
Rises 16:51:17 0° 154° (SSE) 3,420 6.6 -14.1°
Reaches altitude 10° 16:53:42 10° 150° (SSE) 2,488 5.9 -14.7°
Maximum altitude 16:59:04 54° 74° (ENE) 1,039 3.8 -15.9°
Drops below altitude 10° 17:04:26 10° 359° (N) 2,490 6.2 -17.1°
Sets 17:06:51 0° 354° (N) 3,423 6.9 -17.7°
